Terug naar catalogus

STARLINK-3415

ActiefCommunicatieVLEO
NORAD 51472·PAYLOAD·🇺🇸 United States

Gelanceerd Feb 3, 2022 vanaf Cape Canaveral Space Force Station

Loading…

Volgende Passages (komende 24 uur)

TLE

VersSource: CelesTrak SupGP

Epoch: Sep 14, 2026, 22:04 UTC

1 51472C 22010S   26257.91993056 -.00017344  00000+0 -51269-3 0  2571
2 51472  53.1595 141.4596 0001334  78.9262 167.7685 15.34382360    10

Volg STARLINK-3415 in realtime met AllMySat

Download on the App Store